Home > Weather > Thunder Bay > Past weeks

Flag for Canada Weather for the Past 2 Weeks in Thunder Bay, Ontario, Canada

Now
7 °F

Light snow. Overcast.


Feels Like: -7 °F
Forecast: 4 / 13 °F
Wind: 9 mph from North

Location: Thunder Bay

Current Time: Feb 8, 2016 at 5:33:23 AM

Latest Report: Feb 8, 2016 at 5:00 AM


Visibility: 15 mi

Pressure: 29.79 "Hg

Humidity: 72%

Dew point: 0 °F

Location of Thunder BayLocation

Historic Weather in Thunder Bay — Graph

°F

Thunder Bay Temperature Yesterday

Maximum temperature yesterday: 32 °F (at 4:00 AM)
Minimum temperature yesterday: 12 °F (at 11:00 PM)
Average temperature yesterday: 23 °F

High & Low Weather Summary for the Past Weeks

 TemperatureHumidityPressure
High39 °F (Jan 30, 2:00 PM)100% (Jan 25, 3:00 AM)30.36 "Hg (Jan 25, 3:00 AM)
Low-18 °F (Jan 29, 6:00 AM)56% (Jan 28, 6:00 PM)29.28 "Hg (Jan 30, 1:00 PM)
Average19 °F83%29.87 "Hg
* Reported Jan 24 4:00 AM — Feb 8 4:00 AM, Thunder Bay, Weather by CustomWeather, © 2016

Note: Actual official high and low records may vary slightly from our data, if they occured in-between our weather recording intervals... More about our weather records

Advertising

Thunder Bay Weather History for the Previous 24 Hours

 ConditionsComfort  
Time TempWeatherWind HumidityBarometerVisibility
4:00 AM
Mon, Feb 8
9 °FLight snow. Overcast.12 mph72%29.78 "Hg10 mi
3:00 AM9 °FLight snow. Overcast.8 mph78%29.76 "Hg8 mi
2:00 AM9 °FLight snow. Overcast.9 mph78%29.75 "Hg3 mi
1:00 AM10 °FLight snow. Overcast.8 mph79%29.74 "Hg4 mi
12:00 AM10 °FLight snow. Overcast.8 mph85%29.73 "Hg10 mi
11:00 PM
Sun, Feb 7
12 °FLight snow. Overcast.9 mph79%29.72 "Hg10 mi
10:00 PM14 °FLight snow. Overcast.6 mph85%29.71 "Hg2 mi
9:00 PM16 °FLight snow. Overcast.6 mph86%29.70 "Hg2 mi
8:00 PM16 °FLight snow. Overcast.9 mph86%29.68 "Hg2 mi
7:00 PM18 °FLight snow. Overcast.10 mph86%29.67 "Hg1 mi
6:00 PM21 °FLight snow. Ice fog.7 mph93%29.64 "Hg1 mi
5:00 PM23 °FSnow. Ice fog.13 mph93%29.61 "Hg1 mi
4:00 PM23 °FSnow. Ice fog.16 mph93%29.58 "Hg1 mi
3:00 PM23 °FLight mixture of precip. Low clouds.17 mph93%29.57 "Hg1 mi
2:50 PM23 °FLight mixture of precip. Low clouds.21 mph93%29.56 "Hg2 mi
2:00 PM23 °FLight snow. Low clouds.17 mph93%29.57 "Hg5 mi
1:00 PM23 °FLight snow. Low clouds.13 mph100%29.57 "Hg8 mi
12:00 PM25 °FLight snow. Low clouds.18 mph93%29.57 "Hg6 mi
11:00 AM25 °FLight snow. Low clouds.20 mph93%29.56 "Hg6 mi
10:00 AM25 °FLow clouds.15 mph100%29.57 "Hg8 mi
9:00 AM25 °FLight snow. Low clouds.12 mph100%29.57 "Hg1 mi
8:00 AM25 °FLight snow. Low clouds.13 mph100%29.58 "Hg1 mi
7:00 AM27 °FLight snow. Low clouds.13 mph100%29.59 "Hg1 mi
6:00 AM27 °FLight snow. Low clouds.10 mph100%29.59 "Hg3 mi
5:00 AM27 °FLight snow. Mostly cloudy.10 mph100%29.60 "Hg3 mi
Weather by CustomWeather, © 2016

See weather overviewHow to use our weather pages